When you browse on this site, cookies collect data to enhance your experience and personalize the content and advertising you see.
Visit our Privacy Policy to learn more. By continuing to use the site, you agree to this use of cookies and data.
  • En España
  • Lista de países
  • Para 7 días
  • Temperatura del agua
  • El tiempo en el mapa
  • Informadores
  • user-avatar
    Iniciar sesión

    Tiempo cada hora Escaldes-Engordany

    Hoy, 9 Diciembre, Lunes

    Tiempo Temperatura Precipitaciones Viento Presión Humedad
    00:00 +2°C° 0 mm 2 mps 639 mmHg 88%
    01:00 +2°C° 0 mm 2 mps 638 mmHg 76%
    02:00 +1°C° 0 mm 2 mps 638 mmHg 64%
    03:00 +1°C° 0 mm 2 mps 638 mmHg 52%
    04:00 -1°C° 0 mm 2 mps 638 mmHg 56%
    05:00 -1°C° 0 mm 2 mps 637 mmHg 61%
    06:00 -1°C° 0 mm 3 mps 637 mmHg 62%
    07:00 -1°C° 0.4 mm 3 mps 638 mmHg 67%
    08:00 0°C° 0.4 mm 3 mps 638 mmHg 73%
    09:00 +1°C° 0.4 mm 3 mps 638 mmHg 78%
    10:00 +1°C° 1 mm 3 mps 638 mmHg 78%
    11:00 +1°C° 1 mm 4 mps 639 mmHg 79%
    12:00 +1°C° 1 mm 4 mps 639 mmHg 79%
    13:00 +1°C° 1 mm 4 mps 639 mmHg 80%
    14:00 0°C° 1 mm 4 mps 639 mmHg 82%
    15:00 0°C° 1 mm 4 mps 638 mmHg 83%
    16:00 -1°C° 1.2 mm 4 mps 639 mmHg 87%
    17:00 -1°C° 1.2 mm 4 mps 639 mmHg 92%
    18:00 -2°C° 1.2 mm 4 mps 639 mmHg 96%
    19:00 -2°C° 0.8 mm 4 mps 639 mmHg 95%
    20:00 -2°C° 0.8 mm 4 mps 640 mmHg 94%
    21:00 -3°C° 0.8 mm 4 mps 640 mmHg 93%
    22:00 -3°C° 0.5 mm 4 mps 640 mmHg 92%
    23:00 -3°C° 0.5 mm 4 mps 641 mmHg 90%

    Mañana, 10 Diciembre, Martes

    Tiempo Temperatura Precipitaciones Viento Presión Humedad
    00:00 -3°C° 0.5 mm 4 mps 641 mmHg 88%
    01:00 -3°C° 0.2 mm 4 mps 640 mmHg 88%
    02:00 -4°C° 0.2 mm 4 mps 640 mmHg 87%
    03:00 -5°C° 0.2 mm 5 mps 640 mmHg 86%
    04:00 -4°C° 0 mm 4 mps 640 mmHg 83%
    05:00 -4°C° 0 mm 4 mps 640 mmHg 79%
    06:00 -5°C° 0 mm 4 mps 640 mmHg 75%
    07:00 -3°C° 0 mm 4 mps 640 mmHg 68%
    08:00 -2°C° 0 mm 4 mps 641 mmHg 61%
    09:00 0°C° 0 mm 3 mps 641 mmHg 53%
    10:00 +2°C° 0 mm 3 mps 642 mmHg 55%
    11:00 +4°C° 0 mm 2 mps 642 mmHg 56%
    12:00 +6°C° 0 mm 2 mps 642 mmHg 58%
    13:00 +5°C° 0 mm 2 mps 641 mmHg 60%
    14:00 +5°C° 0 mm 2 mps 641 mmHg 62%
    15:00 +6°C° 0 mm 1 mps 640 mmHg 64%
    16:00 +3°C° 0 mm 2 mps 640 mmHg 60%
    17:00 +2°C° 0 mm 2 mps 639 mmHg 56%
    18:00 +1°C° 0 mm 2 mps 639 mmHg 52%
    19:00 +1°C° 0 mm 2 mps 639 mmHg 50%
    20:00 +1°C° 0 mm 2 mps 639 mmHg 48%
    21:00 +1°C° 0 mm 2 mps 639 mmHg 47%
    22:00 +1°C° 0 mm 2 mps 638 mmHg 45%
    23:00 +2°C° 0 mm 1 mps 638 mmHg 44%

    Pasado mañana, 11 Diciembre, Miércoles

    Tiempo Temperatura Precipitaciones Viento Presión Humedad
    00:00 +2°C° 0 mm 1 mps 638 mmHg 43%
    01:00 +2°C° 0 mm 1 mps 638 mmHg 43%
    02:00 +2°C° 0 mm 1 mps 637 mmHg 43%
    03:00 +2°C° 0 mm 1 mps 637 mmHg 43%
    04:00 +2°C° 0 mm 1 mps 637 mmHg 45%
    05:00 +1°C° 0 mm 2 mps 636 mmHg 47%
    06:00 +1°C° 0 mm 2 mps 636 mmHg 49%
    07:00 +2°C° 0 mm 2 mps 637 mmHg 56%
    08:00 +3°C° 0 mm 1 mps 637 mmHg 62%
    09:00 +4°C° 0 mm 1 mps 638 mmHg 69%
    10:00 +5°C° 0.2 mm 1 mps 638 mmHg 71%
    11:00 +4°C° 0.2 mm 2 mps 638 mmHg 74%
    12:00 +5°C° 0.2 mm 2 mps 638 mmHg 77%
    13:00 +4°C° 0.5 mm 2 mps 638 mmHg 80%
    14:00 +3°C° 0.5 mm 2 mps 637 mmHg 82%
    15:00 +1°C° 0.5 mm 3 mps 637 mmHg 85%
    16:00 0°C° 0.1 mm 3 mps 637 mmHg 87%
    17:00 -2°C° 0.1 mm 3 mps 636 mmHg 89%
    18:00 -4°C° 0.1 mm 3 mps 636 mmHg 91%
    19:00 -5°C° 0 mm 3 mps 636 mmHg 87%
    20:00 -5°C° 0 mm 3 mps 636 mmHg 84%
    21:00 -5°C° 0 mm 2 mps 636 mmHg 81%
    22:00 -4°C° 0.2 mm 2 mps 636 mmHg 83%
    23:00 -4°C° 0.2 mm 2 mps 636 mmHg 85%

    12 Diciembre, Jueves

    Tiempo Temperatura Precipitaciones Viento Presión Humedad
    00:00 -3°C° 0.2 mm 2 mps 636 mmHg 88%
    01:00 -3°C° 0.4 mm 2 mps 636 mmHg 89%
    02:00 -3°C° 0.4 mm 2 mps 636 mmHg 90%
    03:00 -3°C° 0.4 mm 2 mps 635 mmHg 91%
    04:00 -3°C° 0.2 mm 2 mps 635 mmHg 91%
    05:00 -3°C° 0.2 mm 2 mps 635 mmHg 91%
    06:00 -4°C° 0.2 mm 2 mps 635 mmHg 90%
    07:00 -3°C° 0 mm 2 mps 636 mmHg 87%
    08:00 0°C° 0 mm 1 mps 636 mmHg 84%
    09:00 0°C° 0 mm 1 mps 636 mmHg 80%
    10:00 +2°C° 0 mm 1 mps 637 mmHg 77%
    11:00 +3°C° 0 mm 1 mps 637 mmHg 74%
    12:00 +4°C° 0 mm 1 mps 637 mmHg 71%
    13:00 +4°C° 0 mm 1 mps 636 mmHg 73%
    14:00 +3°C° 0 mm 1 mps 635 mmHg 75%
    15:00 +3°C° 0 mm 1 mps 635 mmHg 77%
    16:00 +2°C° 0 mm 1 mps 634 mmHg 81%
    17:00 0°C° 0 mm 1 mps 633 mmHg 85%
    18:00 -1°C° 0 mm 1 mps 632 mmHg 89%
    19:00 -1°C° 0.1 mm 1 mps 632 mmHg 89%
    20:00 0°C° 0.1 mm 1 mps 632 mmHg 88%
    21:00 0°C° 0.1 mm 1 mps 631 mmHg 88%
    22:00 0°C° 0.8 mm 1 mps 631 mmHg 90%
    23:00 +1°C° 0.8 mm 1 mps 631 mmHg 92%

    13 Diciembre, Viernes

    Tiempo Temperatura Precipitaciones Viento Presión Humedad
    00:00 +2°C° 0.8 mm 1 mps 631 mmHg 94%
    01:00 +3°C° 0.7 mm 1 mps 631 mmHg 95%
    02:00 +3°C° 0.7 mm 1 mps 630 mmHg 95%
    03:00 +3°C° 0.7 mm 1 mps 630 mmHg 96%
    04:00 +4°C° 1 mm 1 mps 630 mmHg 96%
    05:00 +3°C° 1 mm 2 mps 629 mmHg 97%
    06:00 +3°C° 1 mm 2 mps 629 mmHg 97%
    07:00 +3°C° 0.8 mm 2 mps 629 mmHg 97%
    08:00 +4°C° 0.8 mm 2 mps 630 mmHg 96%
    09:00 +4°C° 0.8 mm 2 mps 630 mmHg 96%
    10:00 +4°C° 0.6 mm 2 mps 630 mmHg 95%
    11:00 +5°C° 0.6 mm 2 mps 630 mmHg 95%
    12:00 +5°C° 0.6 mm 2 mps 631 mmHg 94%
    13:00 +5°C° 0.4 mm 2 mps 631 mmHg 94%
    14:00 +5°C° 0.4 mm 2 mps 631 mmHg 95%
    15:00 +5°C° 0.4 mm 2 mps 630 mmHg 95%
    16:00 +5°C° 0.5 mm 1 mps 631 mmHg 96%
    17:00 +5°C° 0.5 mm 1 mps 631 mmHg 97%
    18:00 +5°C° 0.5 mm 1 mps 631 mmHg 97%
    19:00 +5°C° 0.3 mm 1 mps 631 mmHg 97%
    20:00 +5°C° 0.3 mm 1 mps 632 mmHg 97%
    21:00 +5°C° 0.3 mm 1 mps 632 mmHg 97%
    22:00 +4°C° 0 mm 1 mps 632 mmHg 97%
    23:00 +3°C° 0 mm 2 mps 632 mmHg 96%

    14 Diciembre, Sábado

    Tiempo Temperatura Precipitaciones Viento Presión Humedad
    00:00 +3°C° 0 mm 2 mps 632 mmHg 96%
    01:00 +3°C° 0 mm 2 mps 632 mmHg 95%
    02:00 +3°C° 0 mm 2 mps 632 mmHg 94%
    03:00 +4°C° 0 mm 2 mps 633 mmHg 93%
    04:00 +4°C° 0 mm 2 mps 633 mmHg 93%
    05:00 +5°C° 0 mm 1 mps 633 mmHg 93%
    06:00 +5°C° 0 mm 1 mps 633 mmHg 93%
    07:00 +5°C° 0 mm 1 mps 634 mmHg 92%
    08:00 +6°C° 0 mm 1 mps 635 mmHg 91%
    09:00 +7°C° 0 mm 1 mps 635 mmHg 91%
    10:00 +8°C° 0 mm 1 mps 636 mmHg 88%
    11:00 +9°C° 0 mm 1 mps 636 mmHg 86%
    12:00 +10°C° 0 mm 1 mps 636 mmHg 84%
    13:00 +9°C° 0 mm 1 mps 636 mmHg 86%
    14:00 +9°C° 0 mm 1 mps 636 mmHg 89%
    15:00 +8°C° 0 mm 1 mps 635 mmHg 91%
    16:00 +7°C° 0 mm 1 mps 635 mmHg 92%
    17:00 +5°C° 0 mm 1 mps 635 mmHg 94%
    18:00 +4°C° 0 mm 1 mps 635 mmHg 95%
    19:00 +4°C° 0 mm 1 mps 635 mmHg 93%
    20:00 +3°C° 0 mm 1 mps 635 mmHg 91%
    21:00 +3°C° 0 mm 1 mps 635 mmHg 89%
    22:00 +3°C° 0 mm 1 mps 635 mmHg 87%
    23:00 +3°C° 0 mm 1 mps 635 mmHg 84%
    Mostrar más